| time (UTC) | temp F | wind direction | speed MPH | gust MPH | rain 1hr in | rain 24hr in | rain mn in | humidity % | barometer mb |
| 20260505030503 | 44 | 329 | 0.0 | 0.0 | 0.00 | 0.00 | 0.00 | 63 | 1007.5 |
| 20260505030003 | 44 | 329 | 0.0 | 0.0 | 0.00 | 0.00 | 0.00 | 62 | 1007.5 |
| 20260505025503 | 44 | 329 | 0.0 | 1.0 | 0.00 | 0.00 | 0.00 | 61 | 1007.5 |
| 20260505025004 | 45 | 328 | 0.0 | 1.0 | 0.00 | 0.00 | 0.00 | 60 | 1007.4 |
| 20260505024503 | 45 | 329 | 0.0 | 2.0 | 0.00 | 0.00 | 0.00 | 59 | 1007.4 |
| 20260505024002 | 45 | 328 | 0.0 | 2.0 | 0.00 | 0.00 | 0.00 | 58 | 1007.2 |
| 20260505023503 | 45 | 328 | 1.0 | 2.0 | 0.00 | 0.00 | 0.00 | 58 | 1007.1 |
| 20260505023002 | 46 | 328 | 0.0 | 3.0 | 0.00 | 0.00 | 0.00 | 57 | 1007.1 |
| 20260505022503 | 46 | 328 | 1.0 | 3.0 | 0.00 | 0.00 | 0.00 | 57 | 1007.1 |
| 20260505022003 | 46 | 328 | 1.0 | 2.0 | 0.00 | 0.00 | 0.00 | 56 | 1006.9 |
| 20260505021502 | 46 | 328 | 0.0 | 3.0 | 0.00 | 0.00 | 0.00 | 56 | 1006.9 |
| 20260505021003 | 46 | 328 | 2.0 | 4.0 | 0.00 | 0.00 | 0.00 | 56 | 1006.8 |
| 20260505020502 | 47 | 337 | 2.0 | 4.0 | 0.00 | 0.00 | 0.00 | 55 | 1006.8 |
| 20260505020003 | 47 | 357 | 2.0 | 4.0 | 0.00 | 0.00 | 0.00 | 54 | 1006.8 |
| 20260505015503 | 47 | 351 | 2.0 | 5.0 | 0.00 | 0.00 | 0.00 | 54 | 1006.6 |
| 20260505015003 | 48 | 349 | 2.0 | 5.0 | 0.00 | 0.00 | 0.00 | 53 | 1006.6 |
| 20260505014503 | 48 | 348 | 3.0 | 6.0 | 0.00 | 0.00 | 0.00 | 52 | 1006.5 |
| 20260505014002 | 49 | 343 | 3.0 | 8.0 | 0.00 | 0.00 | 0.00 | 51 | 1006.4 |
| 20260505013503 | 49 | 322 | 3.0 | 8.0 | 0.00 | 0.00 | 0.00 | 51 | 1006.5 |
| 20260505013002 | 50 | 327 | 3.0 | 7.0 | 0.00 | 0.00 | 0.00 | 50 | 1006.3 |
| 20260505012503 | 50 | 323 | 3.0 | 8.0 | 0.00 | 0.00 | 0.00 | 49 | 1006.3 |
| 20260505012002 | 50 | 337 | 2.0 | 9.0 | 0.00 | 0.00 | 0.00 | 49 | 1006.3 |
| 20260505011503 | 50 | 355 | 2.0 | 9.0 | 0.00 | 0.00 | 0.00 | 49 | 1006.1 |
| 20260505011003 | 51 | 331 | 2.0 | 8.0 | 0.00 | 0.00 | 0.00 | 49 | 1006.1 |
| 20260505010503 | 51 | 335 | 5.0 | 8.0 | 0.00 | 0.00 | 0.00 | 48 | 1006.0 |
| 20260505010003 | 51 | 327 | 3.0 | 11.0 | 0.00 | 0.00 | 0.00 | 48 | 1006.0 |
| 20260505005502 | 51 | 330 | 2.0 | 11.0 | 0.00 | 0.00 | 0.00 | 47 | 1006.0 |
| 20260505005004 | 51 | 320 | 4.0 | 13.0 | 0.00 | 0.00 | 0.00 | 48 | 1005.9 |
| 20260505004502 | 52 | 326 | 3.0 | 13.0 | 0.00 | 0.00 | 0.00 | 48 | 1005.7 |
| 20260505004003 | 52 | 322 | 4.0 | 9.0 | 0.00 | 0.00 | 0.00 | 49 | 1005.8 |
| 20260505003502 | 52 | 328 | 5.0 | 9.0 | 0.00 | 0.00 | 0.00 | 48 | 1005.8 |
| 20260505003003 | 52 | 336 | 3.0 | 9.0 | 0.00 | 0.00 | 0.00 | 49 | 1005.8 |
| 20260505002503 | 52 | 327 | 3.0 | 9.0 | 0.00 | 0.00 | 0.00 | 48 | 1005.8 |
| 20260505002003 | 52 | 332 | 2.0 | 11.0 | 0.00 | 0.00 | 0.00 | 48 | 1005.8 |
| 20260505001503 | 53 | 321 | 6.0 | 11.0 | 0.00 | 0.00 | 0.00 | 46 | 1005.6 |
| 20260505001003 | 53 | 301 | 4.0 | 12.0 | 0.00 | 0.00 | 0.00 | 47 | 1005.6 |
| 20260505000503 | 53 | 322 | 3.0 | 12.0 | 0.00 | 0.00 | 0.00 | 47 | 1005.7 |
| 20260505000002 | 52 | 340 | 3.0 | 9.0 | 0.00 | 0.00 | 0.00 | 48 | 1005.7 |
| 20260504235503 | 52 | 343 | 3.0 | 12.0 | 0.00 | 0.00 | 0.00 | 48 | 1005.6 |
| 20260504235002 | 52 | 329 | 7.0 | 12.0 | 0.00 | 0.00 | 0.00 | 46 | 1005.7 |
| 20260504234503 | 52 | 331 | 4.0 | 11.0 | 0.00 | 0.00 | 0.00 | 47 | 1005.7 |
| 20260504234003 | 53 | 332 | 4.0 | 13.0 | 0.00 | 0.00 | 0.00 | 47 | 1005.8 |
| 20260504233503 | 53 | 332 | 5.0 | 13.0 | 0.00 | 0.00 | 0.00 | 46 | 1005.7 |
| 20260504233003 | 53 | 325 | 5.0 | 12.0 | 0.00 | 0.00 | 0.00 | 47 | 1005.7 |
| 20260504232502 | 53 | 284 | 4.0 | 12.0 | 0.00 | 0.00 | 0.00 | 47 | 1005.6 |
| 20260504232003 | 53 | 311 | 3.0 | 13.0 | 0.00 | 0.00 | 0.00 | 48 | 1005.6 |
| 20260504231502 | 53 | 319 | 6.0 | 13.0 | 0.00 | 0.00 | 0.00 | 46 | 1005.6 |
| 20260504231003 | 53 | 302 | 5.0 | 12.0 | 0.00 | 0.00 | 0.00 | 47 | 1005.7 |
| 20260504230503 | 52 | 331 | 5.0 | 13.0 | 0.00 | 0.00 | 0.00 | 48 | 1005.7 |
| 20260504230003 | 52 | 319 | 5.0 | 13.0 | 0.00 | 0.00 | 0.00 | 47 | 1005.6 |
| 20260504225503 | 52 | 324 | 6.0 | 11.0 | 0.00 | 0.00 | 0.00 | 46 | 1005.7 |
| 20260504225003 | 53 | 316 | 4.0 | 12.0 | 0.00 | 0.00 | 0.00 | 48 | 1005.7 |
| 20260504224503 | 53 | 308 | 5.0 | 16.0 | 0.00 | 0.00 | 0.00 | 47 | 1005.6 |
| 20260504224002 | 53 | 308 | 6.0 | 21.0 | 0.00 | 0.00 | 0.00 | 47 | 1005.6 |
| 20260504223503 | 53 | 323 | 7.0 | 21.0 | 0.00 | 0.00 | 0.00 | 46 | 1005.5 |
| 20260504223003 | 53 | 314 | 6.0 | 17.0 | 0.00 | 0.00 | 0.00 | 47 | 1005.7 |
| 20260504222503 | 53 | 309 | 6.0 | 17.0 | 0.00 | 0.00 | 0.00 | 48 | 1005.6 |
| 20260504222003 | 53 | 305 | 4.0 | 15.0 | 0.00 | 0.00 | 0.00 | 48 | 1005.7 |
| 20260504221503 | 53 | 305 | 6.0 | 17.0 | 0.00 | 0.00 | 0.00 | 48 | 1005.7 |
| 20260504221003 | 53 | 323 | 5.0 | 17.0 | 0.00 | 0.00 | 0.00 | 48 | 1005.6 |
| 20260504220503 | 53 | 311 | 4.0 | 15.0 | 0.00 | 0.00 | 0.00 | 50 | 1005.7 |
| 20260504220003 | 53 | 299 | 5.0 | 18.0 | 0.00 | 0.00 | 0.00 | 50 | 1005.8 |
| 20260504215503 | 52 | 324 | 5.0 | 18.0 | 0.00 | 0.00 | 0.00 | 50 | 1005.7 |
| 20260504215003 | 53 | 315 | 6.0 | 15.0 | 0.00 | 0.00 | 0.00 | 50 | 1005.8 |
| 20260504214503 | 53 | 312 | 6.0 | 15.0 | 0.00 | 0.00 | 0.00 | 51 | 1005.7 |
| 20260504214003 | 53 | 313 | 5.0 | 16.0 | 0.00 | 0.00 | 0.00 | 50 | 1005.7 |
| 20260504213503 | 53 | 319 | 5.0 | 16.0 | 0.00 | 0.00 | 0.00 | 51 | 1005.7 |
| 20260504213003 | 53 | 301 | 5.0 | 15.0 | 0.00 | 0.00 | 0.00 | 51 | 1005.8 |
| 20260504212503 | 53 | 320 | 7.0 | 15.0 | 0.00 | 0.00 | 0.00 | 51 | 1005.7 |
| 20260504212002 | 53 | 315 | 7.0 | 19.0 | 0.00 | 0.00 | 0.00 | 51 | 1005.6 |
| 20260504211503 | 53 | 321 | 7.0 | 19.0 | 0.00 | 0.00 | 0.00 | 50 | 1005.7 |
| 20260504211002 | 54 | 325 | 7.0 | 17.0 | 0.00 | 0.00 | 0.00 | 51 | 1005.5 |
| 20260504210503 | 54 | 299 | 5.0 | 15.0 | 0.00 | 0.00 | 0.00 | 51 | 1005.5 |
| 20260504210003 | 54 | 302 | 5.0 | 20.0 | 0.00 | 0.00 | 0.00 | 52 | 1005.5 |
| 20260504205503 | 54 | 328 | 6.0 | 20.0 | 0.00 | 0.00 | 0.00 | 50 | 1005.3 |
| 20260504205003 | 54 | 305 | 5.0 | 19.0 | 0.00 | 0.00 | 0.00 | 50 | 1005.3 |
| 20260504204503 | 55 | 327 | 6.0 | 19.0 | 0.00 | 0.00 | 0.00 | 50 | 1005.2 |
| 20260504204003 | 55 | 317 | 7.0 | 31.0 | 0.00 | 0.00 | 0.00 | 52 | 1005.2 |
| 20260504203502 | 55 | 304 | 7.0 | 31.0 | 0.00 | 0.00 | 0.00 | 51 | 1005.0 |
| 20260504203003 | 55 | 317 | 5.0 | 16.0 | 0.00 | 0.00 | 0.00 | 52 | 1004.8 |
| 20260504202503 | 55 | 321 | 6.0 | 16.0 | 0.00 | 0.00 | 0.00 | 51 | 1004.8 |
| 20260504202003 | 54 | 313 | 6.0 | 18.0 | 0.00 | 0.00 | 0.00 | 52 | 1004.8 |
| 20260504201503 | 54 | 328 | 5.0 | 18.0 | 0.00 | 0.00 | 0.00 | 51 | 1005.0 |
| 20260504201003 | 55 | 304 | 6.0 | 18.0 | 0.00 | 0.00 | 0.00 | 51 | 1004.9 |
| 20260504200503 | 55 | 310 | 6.0 | 18.0 | 0.00 | 0.00 | 0.00 | 51 | 1004.9 |
| 20260504200003 | 54 | 302 | 6.0 | 18.0 | 0.00 | 0.00 | 0.00 | 54 | 1004.9 |
| 20260504195503 | 54 | 314 | 5.0 | 15.0 | 0.00 | 0.00 | 0.00 | 55 | 1004.9 |
| 20260504195002 | 54 | 309 | 6.0 | 14.0 | 0.00 | 0.00 | 0.00 | 54 | 1004.9 |
| 20260504194503 | 53 | 326 | 5.0 | 15.0 | 0.00 | 0.00 | 0.00 | 53 | 1005.0 |
| 20260504194003 | 54 | 303 | 6.0 | 15.0 | 0.00 | 0.00 | 0.00 | 53 | 1004.9 |
| 20260504193503 | 54 | 311 | 6.0 | 16.0 | 0.00 | 0.00 | 0.00 | 54 | 1004.9 |
| 20260504193003 | 54 | 316 | 5.0 | 16.0 | 0.00 | 0.00 | 0.00 | 54 | 1004.9 |
| 20260504192503 | 54 | 295 | 5.0 | 14.0 | 0.00 | 0.00 | 0.00 | 55 | 1004.6 |
| 20260504192003 | 54 | 312 | 5.0 | 18.0 | 0.00 | 0.00 | 0.00 | 54 | 1004.6 |
| 20260504191503 | 53 | 302 | 5.0 | 18.0 | 0.00 | 0.00 | 0.00 | 54 | 1004.5 |
| 20260504191003 | 53 | 329 | 5.0 | 21.0 | 0.00 | 0.00 | 0.00 | 53 | 1004.7 |
| 20260504190502 | 53 | 324 | 7.0 | 21.0 | 0.00 | 0.00 | 0.00 | 53 | 1004.7 |
| 20260504190003 | 54 | 316 | 8.0 | 20.0 | 0.00 | 0.00 | 0.00 | 53 | 1004.5 |
| 20260504185502 | 54 | 305 | 6.0 | 15.0 | 0.00 | 0.00 | 0.00 | 55 | 1004.3 |
| 20260504185003 | 54 | 301 | 7.0 | 15.0 | 0.00 | 0.00 | 0.00 | 55 | 1004.3 |
| 20260504184503 | 54 | 288 | 6.0 | 16.0 | 0.00 | 0.00 | 0.00 | 55 | 1004.4 |
| 20260504184003 | 54 | 279 | 6.0 | 18.0 | 0.00 | 0.00 | 0.00 | 54 | 1004.3 |
| 20260504183503 | 54 | 312 | 7.0 | 18.0 | 0.00 | 0.00 | 0.00 | 56 | 1004.5 |
| 20260504183003 | 54 | 282 | 5.0 | 13.0 | 0.00 | 0.00 | 0.00 | 57 | 1004.2 |
| 20260504182503 | 54 | 311 | 4.0 | 13.0 | 0.00 | 0.00 | 0.00 | 57 | 1004.4 |
| 20260504182002 | 54 | 322 | 5.0 | 16.0 | 0.00 | 0.00 | 0.00 | 56 | 1004.3 |
| 20260504181503 | 54 | 327 | 7.0 | 18.0 | 0.00 | 0.00 | 0.00 | 54 | 1004.3 |
| 20260504181002 | 54 | 299 | 5.0 | 18.0 | 0.00 | 0.00 | 0.00 | 54 | 1004.2 |
| 20260504180503 | 55 | 328 | 6.0 | 14.0 | 0.00 | 0.00 | 0.00 | 55 | 1004.1 |
| 20260504180002 | 55 | 303 | 5.0 | 14.0 | 0.00 | 0.00 | 0.00 | 55 | 1004.1 |
| 20260504175503 | 54 | 327 | 6.0 | 17.0 | 0.00 | 0.00 | 0.00 | 57 | 1004.1 |
| 20260504175003 | 54 | 323 | 7.0 | 17.0 | 0.00 | 0.00 | 0.00 | 54 | 1004.1 |
| 20260504174503 | 55 | 313 | 5.0 | 15.0 | 0.00 | 0.00 | 0.00 | 54 | 1004.0 |
| 20260504174003 | 55 | 334 | 6.0 | 16.0 | 0.00 | 0.00 | 0.00 | 54 | 1003.8 |
| 20260504173503 | 55 | 329 | 9.0 | 16.0 | 0.00 | 0.00 | 0.00 | 51 | 1003.9 |
| 20260504173003 | 55 | 327 | 8.0 | 19.0 | 0.00 | 0.00 | 0.00 | 50 | 1004.0 |
| 20260504172502 | 55 | 330 | 6.0 | 19.0 | 0.00 | 0.00 | 0.00 | 49 | 1003.7 |
| 20260504172003 | 56 | 329 | 5.0 | 18.0 | 0.00 | 0.00 | 0.00 | 49 | 1003.7 |
| 20260504171502 | 56 | 312 | 6.0 | 15.0 | 0.00 | 0.00 | 0.00 | 48 | 1003.7 |
| 20260504171003 | 56 | 307 | 6.0 | 15.0 | 0.00 | 0.00 | 0.00 | 46 | 1003.6 |
| 20260504170503 | 56 | 312 | 5.0 | 15.0 | 0.00 | 0.00 | 0.00 | 47 | 1003.4 |
| 20260504151003 | 56 | 311 | 5.0 | 14.0 | 0.00 | 0.00 | 0.00 | 64 | 1002.0 |
| 20260504150503 | 55 | 330 | 6.0 | 14.0 | 0.00 | 0.00 | 0.00 | 63 | 1001.9 |
| 20260504141002 | 53 | 334 | 6.0 | 11.0 | 0.00 | 0.00 | 0.00 | 69 | 1001.7 |
| 20260504140503 | 53 | 323 | 4.0 | 10.0 | 0.00 | 0.00 | 0.00 | 70 | 1001.7 |
| 20260504130503 | 52 | 332 | 3.0 | 6.0 | 0.00 | 0.00 | 0.00 | 79 | 1001.2 |
| 20260504110503 | 51 | 304 | 2.0 | 8.0 | 0.00 | 0.00 | 0.00 | 79 | 999.6 |
| 20260504100503 | 54 | 253 | 5.0 | 12.0 | 0.00 | 0.00 | 0.00 | 68 | 999.4 |
| 20260504082003 | 56 | 232 | 5.0 | 10.0 | 0.00 | 0.00 | 0.00 | 54 | 999.2 |
| 20260504081502 | 56 | 215 | 5.0 | 13.0 | 0.00 | 0.00 | 0.00 | 54 | 999.3 |
| 20260504081003 | 56 | 220 | 7.0 | 14.0 | 0.00 | 0.00 | 0.00 | 53 | 999.3 |
| 20260504080502 | 56 | 219 | 8.0 | 14.0 | 0.00 | 0.00 | 0.00 | 52 | 999.4 |